CZ-6A DEB, 54344

Orbit data source: Space-Track

CZ-6A DEB, 54344 is space debris in SSO originally from a launch on Fri, 11 Nov 2022 UTC launched from the Taiyaun Space Center, China (TSC). Debris objects in space refer to the collection of defunct objects orbiting the Earth. Examples of debris include non-operational satellites, rocket bodies, and fragments generated from explosions, collisions, or faulty payload assembly.

Loading next visibility...
Identifier
54344, 2022-151CP
Orbit
SSO
Country
Flag of CNCN / PRC
Related business
Manufacturer
SAST
Mission
Spacecraft
Bus & Motor
Unknown
Mass
Unknown
Launch date (UTC)
2022-11-11 (4 years ago)
Launch vehicle
Unknown
Launch site
Taiyaun Space Center, China (TSC)
Object type
Payload
Rocket body
Debris
Shape & HBR
Unknown shape, 0.2 m
Radar Cross Section
Medium (>0.1 m² and <1 m²)

Expand to show TLE details & history
Last TLE update: 9 hours ago

TLE from 9 hours ago
0 CZ-6A DEB
1 54344U 22151CP  26263.45553553 -.00000129  00000-0 -50380-4 0  9999
2 54344  98.8702 258.1089 0057431  91.7684 269.0064 14.07310149197503
Epoch: 2026-09-20T10:55Z
TLE epoch observation values (Epoch: 2026-09-20T10:55:58.269Z)
Latitude
-0.00005°
Longitude
94.76665°
Altitude
872.444 km
Speed
7.416 km/s
True Right ascension
17h 12m 26s
True Declination
0° 00' 00"
Sunlit
Object was in daylight at epoch
Visualization orbit readout
Latitude
Unknown
Longitude
Unknown
Altitude
Unknown
Speed
Unknown
Apparent Right ascension
Unknown
Apparent Declination
Unknown
Sunlit
N/A
Visualization observer readout
Local Sidereal Time
12:55:28
Azimuth
Unknown
Elevation
Unknown
Doppler factor
Unknown
Orbital elements
Apogee altitude
907.377 km
Perigee altitude
824.172 km
Semi-major axis
7,243.911 km
Eccentricity
0.00574
Inclination
98.8702°
RAAN
258.1089°
Arg. of periapsis
91.7684°
True anomaly
268.34848°
Mean anomaly
269.0064°
Eccentric anomaly
268.67743°
Mean motion
3.52033 °/min
Orbital period
102.26 mins
BSTAR
-0.00005038
Loading maneuver chart data...
Computing Atmospheric mass density...
Loading historical data...
Loading historical data...
Loading historical data...
Loading historical data...
Loading historical data...
Loading historical data...
Loading historical data...

Documentation

Showing up to 5 results
|